Le nostre stazioni meteo in Italia

Pubblicità
Il mio iltempo24.it
Rolo, Italia (16143): Temperatura & dewpoint: 12.03.2019 20:00:00 - 18.03.2019 20:00:00 (CET)Rolo, Italia (16143): velocità del vento: 12.03.2019 20:00:00 - 18.03.2019 20:00:00 (CET)Rolo, Italia (16143): direzione del vento: 12.03.2019 20:00:00 - 18.03.2019 20:00:00 (CET)Rolo, Italia (16143): reduced air pressure: 12.03.2019 20:00:00 - 18.03.2019 20:00:00 (CET)Rolo, Italia (16143): precipitazioni: 12.03.2019 20:00:00 - 18.03.2019 20:00:00 (CET)
Data & Tempo tt [°C] td [°C] ff [km/h] ff [kn] dd ppp [hPa] rr [mm]
18.03.2019 20:00:00 - - - - - - -
18.03.2019 19:00:00 8,5 2,3 13 7 E 1018,5 0,0
18.03.2019 18:00:00 10,2 2,5 24 13 E 1017,4 0,0
18.03.2019 17:00:00 11,1 3,6 23 12 ESE 1016,3 0,0
18.03.2019 16:00:00 11,7 4,0 24 13 E 1015,6 0,0
18.03.2019 15:00:00 12,3 4,5 24 13 E 1015,2 0,0
18.03.2019 14:00:00 12,7 5,1 23 12 E 1015,3 0,0
18.03.2019 13:00:00 12,6 4,8 20 11 E 1015,1 0,0
18.03.2019 12:00:00 13,1 5,3 9 5 NE 1014,6 0,0
18.03.2019 11:00:00 12,8 4,0 9 5 NNO 1014,0 0,0
18.03.2019 10:00:00 10,7 5,5 18 10 O 1013,1 0,0
18.03.2019 09:00:00 9,2 5,9 13 7 OSO 1012,4 0,0
18.03.2019 08:00:00 8,8 5,7 14 7 OSO 1011,6 0,0
18.03.2019 07:00:00 8,7 6,3 9 5 SSO 1010,5 1,2
18.03.2019 06:00:00 9,6 6,3 19 11 O 1010,2 0,2
18.03.2019 05:00:00 8,7 4,7 12 6 SSO 1008,6 0,0
18.03.2019 04:00:00 9,4 5,4 8 5 SE 1008,2 0,0
18.03.2019 03:00:00 9,4 6,1 10 6 SSE 1008,9 0,0
18.03.2019 02:00:00 9,3 5,8 7 4 SSE 1009,6 0,0
18.03.2019 01:00:00 9,2 5,4 6 3 SSE 1010,0 0,0
18.03.2019 00:00:00 11,6 5,5 6 3 S 1010,2 0,0
17.03.2019 23:00:00 11,5 6,4 3 2 SO 1010,8 0,0
17.03.2019 22:00:00 11,9 6,6 3 1 NO 1011,2 0,0
17.03.2019 21:00:00 13,0 6,8 1 1 ONO 1011,0 0,0
17.03.2019 20:00:00 14,4 7,2 8 5 O 1011,1 0,0
17.03.2019 19:00:00 14,5 7,5 4 2 NNO 1011,3 0,0
17.03.2019 18:00:00 16,1 7,1 3 2 N 1011,5 0,0
17.03.2019 17:00:00 16,8 6,9 4 2 N 1011,7 0,0
17.03.2019 16:00:00 16,9 6,7 6 3 NNO 1012,2 0,0
17.03.2019 15:00:00 17,3 6,5 8 4 NO 1013,0 0,0
17.03.2019 14:00:00 18,1 7,2 10 5 NNO 1013,3 0,0
17.03.2019 13:00:00 17,7 8,8 4 2 ENE 1014,4 0,0
17.03.2019 12:00:00 15,9 10,2 3 2 ESE 1015,5 0,0
17.03.2019 11:00:00 10,8 9,2 2 1 NE 1016,3 0,0
17.03.2019 10:00:00 9,5 7,9 8 4 SSE 1016,7 0,0
17.03.2019 09:00:00 8,6 7,1 10 6 SE 1016,8 0,0
17.03.2019 08:00:00 8,1 6,6 9 5 SE 1016,6 0,0
17.03.2019 07:00:00 5,8 4,3 2 1 N 1016,3 0,0
17.03.2019 06:00:00 5,9 4,1 5 3 OSO 1016,1 0,0
17.03.2019 05:00:00 7,1 5,2 5 3 E 1015,8 0,0
17.03.2019 04:00:00 3,7 2,1 6 3 NNE 1015,9 0,0
17.03.2019 03:00:00 5,1 3,3 3 2 S 1015,9 0,0
17.03.2019 02:00:00 6,8 4,6 5 3 SO 1016,0 0,0
17.03.2019 01:00:00 6,3 4,3 1 1 N 1015,9 0,0
17.03.2019 00:00:00 8,0 5,1 6 4 NNE 1016,0 0,0
16.03.2019 23:00:00 8,5 5,4 2 1 NNE 1015,6 0,0
16.03.2019 22:00:00 9,2 6,1 12 7 ENE 1015,2 0,0
16.03.2019 21:00:00 11,3 7,4 10 6 NE 1014,7 0,0
16.03.2019 20:00:00 13,4 7,6 16 9 E 1014,0 0,0
16.03.2019 19:00:00 14,5 6,6 13 7 ENE 1013,3 0,0
16.03.2019 18:00:00 17,4 8,0 9 5 NE 1013,0 0,0
16.03.2019 17:00:00 20,6 7,6 5 3 ESE 1012,6 0,0
16.03.2019 16:00:00 21,1 7,3 5 3 ESE 1012,8 0,0
16.03.2019 15:00:00 21,0 6,9 2 1 ESE 1013,0 0,0
16.03.2019 14:00:00 19,9 6,6 5 3 NO 1013,5 0,0
16.03.2019 13:00:00 18,1 7,5 5 3 NNE 1014,3 0,0
16.03.2019 12:00:00 16,9 7,3 7 4 NO 1014,9 0,0
16.03.2019 11:00:00 15,2 7,5 4 2 E 1015,2 0,0
16.03.2019 10:00:00 12,1 7,8 - - - 1015,0 -
16.03.2019 09:00:00 8,8 6,4 5 3 E 1014,7 0,0
16.03.2019 08:00:00 4,6 3,3 - - - - 0,0
16.03.2019 07:00:00 1,3 0,1 2 1 NNO 1013,5 0,0
16.03.2019 06:00:00 2,1 0,8 0 0 N 1013,1 0,0
16.03.2019 05:00:00 2,4 1,1 0 0 N 1012,9 0,0
16.03.2019 04:00:00 4,0 2,5 1 1 N 1012,7 0,0
16.03.2019 03:00:00 4,6 3,1 2 1 N 1012,7 0,0
16.03.2019 02:00:00 5,1 3,4 3 1 N 1013,0 0,0
16.03.2019 01:00:00 6,1 4,3 3 2 NE 1013,0 0,0
16.03.2019 00:00:00 6,9 4,4 5 3 ENE 1013,0 0,0
15.03.2019 23:00:00 7,5 4,8 6 3 E 1012,8 0,0
15.03.2019 22:00:00 8,1 5,0 8 4 NE 1012,3 0,0
15.03.2019 21:00:00 8,3 4,1 9 5 NE 1011,6 0,0
15.03.2019 20:00:00 10,7 4,2 3 2 NO 1011,0 0,0
15.03.2019 19:00:00 14,7 4,9 6 3 S 1010,5 0,0
15.03.2019 18:00:00 16,0 5,9 8 4 E 1010,0 0,0
15.03.2019 17:00:00 18,9 5,7 10 5 E 1009,8 0,0
15.03.2019 16:00:00 19,5 5,2 10 5 NE 1009,6 0,0
15.03.2019 15:00:00 19,2 4,9 8 4 NE 1009,5 0,0
15.03.2019 14:00:00 18,8 4,2 9 5 N 1009,6 0,0
15.03.2019 13:00:00 18,1 3,6 10 6 NNO 1010,3 0,0
15.03.2019 12:00:00 16,1 3,8 11 6 O 1010,9 0,0
15.03.2019 11:00:00 13,6 2,5 14 8 O 1011,4 0,0
15.03.2019 10:00:00 11,4 1,9 10 5 ONO 1011,6 0,0
15.03.2019 09:00:00 10,2 1,3 2 1 ONO 1010,8 0,0
15.03.2019 08:00:00 6,9 0,6 5 3 ONO 1010,5 0,0
15.03.2019 07:00:00 3,2 -1,4 8 5 S 1010,3 0,0
15.03.2019 06:00:00 1,2 -2,4 2 1 NE 1009,7 0,0
15.03.2019 05:00:00 4,1 -1,7 0 0 NE 1009,4 0,0
15.03.2019 04:00:00 4,6 -2,3 11 6 SO 1008,6 0,0
15.03.2019 03:00:00 5,9 -2,7 3 2 SO 1008,6 0,0
15.03.2019 02:00:00 7,2 -2,8 6 3 OSO 1008,6 0,0
15.03.2019 01:00:00 8,4 -0,9 14 8 O 1007,8 0,0
15.03.2019 00:00:00 9,8 -0,4 21 11 OSO 1007,7 0,0
14.03.2019 23:00:00 8,9 -0,4 11 6 O 1008,4 0,0
14.03.2019 22:00:00 9,3 -0,3 10 5 OSO 1008,6 0,0
14.03.2019 21:00:00 11,1 -1,3 11 6 OSO 1008,7 0,0
14.03.2019 20:00:00 11,6 -1,5 10 5 SO 1009,0 0,0
14.03.2019 19:00:00 11,1 -0,4 4 2 S 1009,5 0,0
14.03.2019 18:00:00 13,7 -1,5 3 2 OSO 1009,1 0,0
14.03.2019 17:00:00 15,5 -2,9 6 3 OSO 1009,5 0,0
14.03.2019 16:00:00 15,7 -3,3 11 6 O 1010,0 0,0
14.03.2019 15:00:00 16,5 -2,6 14 7 O 1010,7 0,0
14.03.2019 14:00:00 15,5 0,9 9 5 O 1012,0 0,0
14.03.2019 13:00:00 13,2 3,8 7 4 O 1013,6 0,0
14.03.2019 12:00:00 11,2 3,0 14 8 ONO 1014,5 0,0
14.03.2019 11:00:00 9,1 5,7 10 5 O 1014,9 0,0
14.03.2019 10:00:00 4,5 3,2 9 5 O 1015,8 0,0
14.03.2019 09:00:00 2,3 1,1 8 5 O 1015,9 0,2
14.03.2019 08:00:00 -0,7 -1,8 0 0 SSE 1015,9 0,0
14.03.2019 07:00:00 -1,8 -2,9 4 2 SO 1015,8 0,0
14.03.2019 06:00:00 -2,1 -3,1 - - - 1016,2 0,0
14.03.2019 05:00:00 -1,1 -2,1 5 3 SSO 1015,7 0,0
14.03.2019 04:00:00 -1,4 -2,4 4 2 NO 1015,8 0,0
14.03.2019 03:00:00 -1,5 -2,5 4 2 OSO 1015,5 0,0
14.03.2019 02:00:00 -0,3 -1,4 4 2 OSO 1015,6 0,0
14.03.2019 01:00:00 -0,8 -1,9 - - - 1015,2 0,0
14.03.2019 00:00:00 -0,6 -1,7 - - - 1015,2 0,0
13.03.2019 23:00:00 1,3 0,0 4 2 SSE 1014,9 0,0
13.03.2019 22:00:00 3,0 1,7 3 2 ENE 1014,2 0,0
13.03.2019 21:00:00 3,7 2,1 1 1 S 1013,9 0,0
13.03.2019 20:00:00 4,6 2,9 6 3 E 1013,6 0,0
13.03.2019 19:00:00 5,2 3,2 5 3 E 1013,2 0,0
13.03.2019 18:00:00 7,1 3,9 3 2 E 1012,9 0,0
13.03.2019 17:00:00 7,0 3,6 6 3 ESE 1012,4 0,0
13.03.2019 16:00:00 6,7 3,7 12 7 SSE 1012,1 0,2
13.03.2019 15:00:00 - - - - - - -
13.03.2019 14:00:00 - - - - - - -
13.03.2019 13:00:00 - - - - - - -
13.03.2019 12:00:00 6,0 1,9 5 3 N 1014,0 0,8
13.03.2019 11:00:00 6,7 0,6 4 2 NNO 1014,4 0,6
13.03.2019 10:00:00 6,5 -3,2 5 3 SSO 1014,5 0,0
13.03.2019 09:00:00 5,6 -3,5 3 2 E 1014,5 0,0
13.03.2019 08:00:00 3,7 -4,0 5 3 SSE 1014,7 0,0
13.03.2019 07:00:00 0,9 -6,7 2 1 S 1015,3 0,0
13.03.2019 06:00:00 1,4 -6,0 4 2 S 1015,5 0,0
13.03.2019 05:00:00 -0,1 -6,3 5 3 S 1015,7 0,0
13.03.2019 04:00:00 1,1 -6,5 4 2 SSO 1016,4 0,0
13.03.2019 03:00:00 1,7 -6,1 5 3 OSO 1017,2 0,0
13.03.2019 02:00:00 5,5 -7,7 6 3 OSO 1018,1 0,0
13.03.2019 01:00:00 6,1 -7,9 11 6 OSO 1018,8 0,0
13.03.2019 00:00:00 5,1 -8,8 9 5 O 1019,3 0,0
12.03.2019 23:00:00 5,0 -7,8 1 1 SO 1019,8 0,0
12.03.2019 22:00:00 5,5 -9,5 1 0 SSE 1020,5 0,0
12.03.2019 21:00:00 5,7 -10,1 1 1 SSE 1020,7 0,0
12.03.2019 20:00:00 8,7 -10,8 3 1 SSE 1021,1 0,0

tt = Temperatura
td = dewpoint
ff = velocità del vento
dd = direzione del vento
ppp = reduced air pressure
rr = precipitazioni

Stazioni seguenti

WeatherPro
AMSI
MeteoEarth